Date String (YYYY-MM-DD hh:mm:ss) UTC,Instrument flags,Ambient pressure (hPa),Sample flow (lpm),Bypass flow (lpm),Sample temperature (°C),Ambient temperature (°C),ASC tube jacket temperature (°C),LED temperature (°C),Box temperature (°C),Sample RH (%),Span deviation,Mass concentration (μg/m³),Mass concentration (μg/m³),Mass concentration (μg/m³)
DateTimeUTC,F1_M11,P_M11,Q1_M11,Q2_M11,T1_M11,T2_M11,T3_M11,T4_M11,T5_M11,U1_M11,ZSPAN_M11,X0_M11,X2_M11,X1_M11
2022-10-15 19:00:00,,0829.0,4.99,0.00,30.2,28.8,00.0,39.1,32.0,13.9,0000.0,0009.51,0004.88,0004.33
2022-10-15 19:01:00,,0829.0,4.99,0.00,30.2,28.8,00.0,39.1,32.0,14.1,0000.0,0009.28,0004.89,0004.34
2022-10-15 19:02:00,,0829.0,5.00,0.00,30.2,28.9,00.0,39.1,32.0,14.2,0000.0,0009.48,0004.95,0004.37
2022-10-15 19:03:00,,0829.0,5.01,0.00,30.2,28.9,00.0,39.1,32.0,14.2,0000.0,0010.15,0004.99,0004.41
2022-10-15 19:04:00,,0829.0,5.01,0.00,30.2,28.9,00.0,39.1,32.1,14.0,0000.0,0010.82,0005.04,0004.46
2022-10-15 19:05:00,,0829.0,5.00,0.00,30.2,29.0,00.0,39.1,32.1,14.1,0000.0,0011.68,0005.06,0004.50
2022-10-15 19:06:00,,0829.0,4.99,0.00,30.3,29.0,00.0,39.1,32.1,14.0,0000.0,0011.60,0005.12,0004.56
2022-10-15 19:07:00,,0829.0,4.99,0.00,30.3,29.0,00.0,39.1,32.1,14.0,0000.0,0011.67,0005.19,0004.62
2022-10-15 19:08:00,,0829.0,5.00,0.00,30.3,29.1,00.0,39.1,32.1,14.0,0000.0,0011.51,0005.20,0004.69
2022-10-15 19:09:00,,0829.0,5.01,0.00,30.3,29.1,00.0,39.1,32.1,14.0,0000.0,0011.49,0005.29,0004.76
2022-10-15 19:10:00,,0829.0,5.01,0.00,30.3,29.1,00.0,39.1,32.2,14.0,0000.0,0011.67,0005.37,0004.82
2022-10-15 19:11:00,,0829.0,5.01,0.00,30.3,29.1,00.0,39.1,32.2,13.9,0000.0,0011.78,0005.47,0004.88
2022-10-15 19:12:00,,0828.9,4.99,0.00,30.3,29.1,00.0,39.1,32.2,13.9,0000.0,0011.76,0005.51,0004.92
2022-10-15 19:13:00,,0829.0,4.98,0.00,30.4,29.1,00.0,39.2,32.2,14.0,0000.0,0011.43,0005.51,0004.95
2022-10-15 19:14:00,,0828.9,5.00,0.00,30.4,29.1,00.0,39.2,32.2,13.9,0000.0,0011.60,0005.53,0004.96
2022-10-15 19:15:00,,0829.0,5.01,0.00,30.4,29.1,00.0,39.2,32.2,13.9,0000.0,0011.23,0005.51,0004.95
2022-10-15 19:16:00,,0829.0,5.01,0.00,30.4,29.0,00.0,39.2,32.2,13.7,0000.0,0010.63,0005.56,0004.96
2022-10-15 19:17:00,,0829.0,4.98,0.00,30.4,29.0,00.0,39.2,32.2,13.8,0000.0,0010.77,0005.56,0004.95
2022-10-15 19:18:00,,0829.0,5.01,0.00,30.4,29.0,00.0,39.2,32.2,13.8,0000.0,0011.31,0005.51,0004.93
2022-10-15 19:19:00,,0829.0,5.01,0.00,30.4,28.9,00.0,39.2,32.2,13.7,0000.0,0011.51,0005.49,0004.90
2022-10-15 19:20:00,,0829.0,4.99,0.00,30.4,28.9,00.0,39.2,32.2,13.7,0000.0,0011.91,0005.47,0004.87
2022-10-15 19:21:00,,0829.0,5.01,0.00,30.4,28.9,00.0,39.2,32.2,13.8,0000.0,0013.31,0005.44,0004.87
2022-10-15 19:22:00,,0829.0,5.01,0.00,30.4,29.0,00.0,39.2,32.2,13.9,0000.0,0013.37,0005.40,0004.86
2022-10-15 19:23:00,,0829.0,5.00,0.00,30.4,28.9,00.0,39.2,32.2,13.7,0000.0,0014.12,0005.38,0004.85
2022-10-15 19:24:00,,0829.0,4.99,0.00,30.4,28.8,00.0,39.2,32.1,13.7,0000.0,0014.49,0005.41,0004.86
2022-10-15 19:25:00,,0829.0,5.01,0.00,30.4,28.8,00.0,39.2,32.1,13.7,0000.0,0014.10,0005.43,0004.88
2022-10-15 19:26:00,,0829.0,5.01,0.00,30.4,28.9,00.0,39.2,32.2,13.7,0000.0,0013.48,0005.44,0004.89
2022-10-15 19:27:00,,0828.9,5.00,0.00,30.4,28.9,00.0,39.2,32.2,13.8,0000.0,0013.45,0005.41,0004.90
2022-10-15 19:28:00,,0828.9,5.00,0.00,30.4,29.0,00.0,39.2,32.2,13.8,0000.0,0013.43,0005.42,0004.90
2022-10-15 19:29:00,,0829.0,5.00,0.00,30.4,29.0,00.0,39.2,32.2,13.7,0000.0,0013.40,0005.48,0004.95
2022-10-15 19:30:00,,0829.0,5.00,0.00,30.4,29.0,00.0,39.2,32.2,13.7,0000.0,0013.55,0005.52,0005.00
2022-10-15 19:31:00,,0829.0,5.01,0.00,30.4,29.0,00.0,39.2,32.2,13.7,0000.0,0013.64,0005.54,0005.04
2022-10-15 19:32:00,,0829.0,5.00,0.00,30.4,29.1,00.0,39.2,32.2,13.7,0000.0,0012.27,0005.58,0005.06
2022-10-15 19:33:00,,0829.0,5.00,0.00,30.4,29.1,00.0,39.2,32.2,13.7,0000.0,0011.96,0005.62,0005.09
2022-10-15 19:34:00,,0829.0,5.00,0.00,30.4,28.3,00.0,39.2,32.2,13.7,0000.0,0011.34,0005.65,0005.12
2022-10-15 19:35:00,,0828.9,5.00,0.00,30.4,26.7,00.0,39.1,31.9,13.7,0000.0,0011.30,0005.68,0005.12
2022-10-15 19:36:00,,0828.9,5.01,0.00,30.3,26.2,00.0,39.0,31.9,13.7,0000.0,0011.06,0005.65,0005.10
2022-10-15 19:37:00,,0828.9,4.99,0.00,30.2,26.4,00.0,39.0,31.7,13.8,0000.0,0011.17,0005.64,0005.09
2022-10-15 19:38:00,,0829.0,5.01,0.00,30.1,26.7,00.0,38.9,31.6,13.8,0000.0,0011.70,0005.66,0005.09
2022-10-15 19:39:00,,0828.9,5.01,0.00,30.0,27.1,00.0,38.9,31.6,13.9,0000.0,0011.47,0005.69,0005.11
2022-10-15 19:40:00,,0828.9,4.99,0.00,30.0,27.5,00.0,38.9,31.6,13.9,0000.0,0010.92,0005.64,0005.09
2022-10-15 19:41:00,,0828.9,4.99,0.00,29.9,27.7,00.0,38.9,31.7,14.0,0000.0,0010.59,0005.64,0005.07
2022-10-15 19:42:00,,0828.9,5.02,0.00,29.9,27.9,00.0,38.8,31.7,14.0,0000.0,0010.25,0005.65,0005.04
2022-10-15 19:43:00,,0828.9,5.00,0.00,29.9,28.1,00.0,38.8,31.7,13.9,0000.0,0010.84,0005.66,0005.02
2022-10-15 19:44:00,,0828.9,5.00,0.00,29.9,28.2,00.0,38.8,31.7,13.9,0000.0,0010.91,0005.67,0005.00
2022-10-15 19:45:00,,0828.9,5.00,0.00,29.9,28.3,00.0,38.8,31.7,13.8,0000.0,0010.87,0005.64,0004.96
2022-10-15 19:46:00,,0828.9,5.01,0.00,29.9,28.4,00.0,38.8,31.7,13.8,0000.0,0010.88,0005.59,0004.95
2022-10-15 19:47:00,,0829.0,5.00,0.00,29.9,28.5,00.0,38.8,31.8,14.0,0000.0,0011.03,0005.60,0004.95
2022-10-15 19:48:00,,0829.0,5.00,0.00,29.9,28.6,00.0,38.8,31.8,14.0,0000.0,0011.00,0005.60,0004.94
2022-10-15 19:49:00,,0829.0,5.00,0.00,30.0,28.6,00.0,38.8,31.8,13.9,0000.0,0010.87,0005.57,0004.92
2022-10-15 19:50:00,,0829.0,5.00,0.00,30.0,28.7,00.0,38.8,31.8,13.8,0000.0,0011.20,0005.56,0004.89
2022-10-15 19:51:00,,0829.1,5.01,0.00,30.0,28.7,00.0,38.8,31.9,13.9,0000.0,0012.37,0005.62,0004.88
2022-10-15 19:52:00,,0829.0,5.00,0.00,30.0,28.8,00.0,38.8,31.9,13.9,0000.0,0012.51,0005.62,0004.86
2022-10-15 19:53:00,,0829.1,5.00,0.00,30.0,28.8,00.0,38.8,31.9,13.9,0000.0,0012.20,0005.58,0004.84
2022-10-15 19:54:00,,0829.0,4.99,0.00,30.0,28.8,00.0,38.8,31.9,13.7,0000.0,0011.71,0005.52,0004.81
2022-10-15 19:55:00,,0829.0,5.00,0.00,30.1,28.9,00.0,38.8,32.0,13.8,0000.0,0011.89,0005.45,0004.78
2022-10-15 19:56:00,,0829.0,4.99,0.00,30.1,28.9,00.0,38.8,32.0,13.9,0000.0,0011.97,0005.40,0004.76
2022-10-15 19:57:00,,0829.0,4.98,0.00,30.1,28.9,00.0,38.9,32.0,13.8,0000.0,0012.13,0005.35,0004.72
2022-10-15 19:58:00,,0829.0,5.00,0.00,30.1,29.0,00.0,38.9,32.0,13.6,0000.0,0012.29,0005.29,0004.69
2022-10-15 19:59:00,,0829.0,5.00,0.00,30.1,29.0,00.0,38.9,32.0,13.7,0000.0,0012.62,0005.24,0004.66
